Weather observations for the past three days for
Aniak, Aniak Airport
Imperial (Metric)
Date Time (akdt) Wind (mph) Vis. (mi.) Weather Sky Cond. Temperature (ºF) Relative Humidity Wind Chill (°F) Heat Index (°F) Pressure Precipitation (in)
Air Dwpt 6 hour altimeter (in) sea level (mb) 1 hr 3 hr 6 hr
Max. Min.
20 06:56 Calm 0.25 Fog OVC001 43 42.1 97% 30.27 1025.3
20 05:56 Calm 10.00 Fair CLR 42.1 41 96% 30.27 1025.3
20 04:56 Calm 10.00 Fair CLR 43 42.1 97% 30.26 1025.0
20 03:56 Calm 10.00 Fair CLR 44.1 43 61 44.1 96% 30.26 1025.0
20 02:56 Calm 10.00 Fair CLR 46 45 96% 30.27 1025.2
20 01:56 Calm 10.00 Fair CLR 46.9 45 93% 30.26 1025.0
19 23:56 W 3 10.00 Fair CLR 53.1 48 83% 30.24 1024.4
19 22:56 W 5 10.00 Fair CLR 57.9 48 70% 30.24 1024.1
19 20:56 W 8 10.00 Fair CLR 63 48 58% 30.22 1023.5
19 19:56 NW 6 10.00 Fair CLR 64 48 56% 30.21 1023.3
19 18:56 W 5 10.00 Fair CLR 64 46 52% 30.21 1023.3
19 17:56 NW 8 10.00 Fair CLR 62.1 48 60% 30.22 1023.4
19 16:56 NW 9 10.00 Fair CLR 62.1 48 60% 30.22 1023.6
19 15:56 NW 8 10.00 Fair CLR 60.1 46.9 61 51.1 62% 30.24 1024.1
19 14:56 NW 7 10.00 Fair CLR 59 46.9 64% 30.24 1024.2
19 13:56 NW 9 10.00 A Few Clouds FEW019 55.9 48 75% 30.24 1024.4
19 12:56 W 9 7.00 Mostly Cloudy BKN017 55.9 48 75% 30.24 1024.3
19 10:56 W 8 10.00 Overcast OVC013 52 46.9 83% 30.24 1024.1
19 09:56 SW 6 10.00 Overcast OVC009 51.1 46 51.1 46.9 83% 30.23 1024.0
19 07:56 Calm 10.00 Fair CLR 48.9 46.9 93% 30.22 1023.4
19 06:56 Calm 10.00 Fair CLR 48 46.9 96% 30.21 1023.3
19 05:56 SE 5 10.00 Fair CLR 48 46 93% 47 30.21 1023.1
19 04:56 Calm 10.00 A Few Clouds FEW032 48 46.9 96% 30.2 1022.8
19 03:56 SE 5 10.00 Partly Cloudy SCT032 48 46 52 48 93% 47 30.19 1022.5
19 02:56 Calm 10.00 A Few Clouds FEW030 48 46.9 96% 30.19 1022.5
19 01:56 SE 3 10.00 Fair CLR 48.9 46.9 93% 30.18 1022.3
19 00:56 Calm 10.00 Partly Cloudy FEW018 SCT025 SCT080 50 46.9 89% 30.17 1021.9
18 23:56 Calm 10.00 Partly Cloudy SCT023 SCT080 50 48 93% 30.16 1021.7
18 22:56 W 3 10.00 Overcast OVC060 52 46.9 83% 30.16 1021.4
18 21:56 W 3 10.00 Fair CLR 53.1 46 57 53.1 77% 30.15 1021.1
18 19:56 W 10 10.00 Mostly Cloudy BKN024 55.9 46 70% 30.12 1020.1
18 18:56 W 8 10.00 Overcast BKN022 OVC090 55.9 46 70% 30.11 1020.0
18 17:56 NW 7 10.00 Overcast OVC022 55 45 69% 30.11 1019.9
18 16:56 W 13 G 17 10.00 Mostly Cloudy BKN022 55.9 45 67% 30.1 1019.6
18 14:56 W 5 10.00 Overcast OVC022 55 45 69% 30.1 1019.3
18 11:56 W 10 10.00 Overcast SCT014 OVC080 52 44.1 75% 30.07 1018.6
18 10:56 W 8 10.00 Overcast OVC010 50 45 83% 47 30.06 1018.2
18 09:56 W 7 10.00 Overcast OVC006 48.9 46 50 46.9 90% 46 30.04 1017.5
18 06:56 W 6 10.00 Overcast FEW055 OVC110 48 46 93% 46 30 1016.2
18 05:56 Calm 10.00 Mostly Cloudy SCT065 BKN100 BKN120 46.9 46 97% 29.99 1015.6
18 03:56 W 3 10.00 Mostly Cloudy BKN070 50 46.9 55 50 89% 29.97 1015.0
18 02:56 W 5 10.00 Overcast OVC038 51.1 48 89% 29.96 1014.8
18 01:56 W 6 10.00 Overcast SCT036 OVC050 51.1 48 89% 29.95 1014.4
18 00:56 SW 5 10.00 Overcast FEW039 OVC055 52 48 86% 29.94 1014.1
17 23:56 E 3 10.00 Overcast BKN030 OVC036 53.1 48 83% 29.93 1013.7
17 22:56 W 5 10.00 Overcast OVC043 55 46.9 74% 29.91 1013.2
17 20:56 SW 3 10.00 Overcast OVC060 55.9 46 70% 29.89 1012.4
17 19:56 W 7 10.00 Overcast OVC050 57 44.1 62% 29.89 1012.2
17 17:56 W 6 10.00 Overcast OVC049 55 43 64% 29.88 1012.1
17 16:56 W 7 8.00 Overcast BKN033 OVC048 52 46 80% 29.89 1012.2 0.01
17 14:56 Vrbl 7 10.00 Overcast FEW022 OVC041 50 45 83% 48 29.88 1012.0
17 11:56 W 8 10.00 Overcast FEW019 OVC045 51.1 43 74% 29.86 1011.4
17 09:56 W 5 10.00 Overcast SCT011 BKN019 OVC048 48 43 48 45 83% 47 29.86 1011.2
17 08:56 SW 3 10.00 Overcast FEW007 BKN035 OVC050 46 44.1 93% 29.86 1011.2
Date Time (akdt) Wind (mph) Vis. (mi.) Weather Sky Cond. Air Dwpt Max. Min. Relative Humidity Wind Chill (°F) Heat Index (°F) altimeter (in) sea level (mb) 1 hr 3 hr 6 hr
6 hour
Temperature (ºF) Pressure Precipitation (in)